When you browse on this site, cookies collect data to enhance your experience and personalize the content and advertising you see.
Visit our Privacy Policy to learn more. By continuing to use the site, you agree to this use of cookies and data.

Hourly Weather Szklarnia

Today, 12 August, Wednesday

Time Temperature Precipitation Wind Pressure Humidity
00:00 +14°C° 0 mm 1 mps 753 mmHg 88%
01:00 +14°C° 0 mm 1 mps 753 mmHg 90%
02:00 +14°C° 0 mm 1 mps 753 mmHg 89%
03:00 +13°C° 0 mm 1 mps 753 mmHg 89%
04:00 +13°C° 0 mm 1 mps 753 mmHg 88%
05:00 +14°C° 0 mm 1 mps 753 mmHg 82%
06:00 +16°C° 0 mm 1 mps 753 mmHg 75%
07:00 +17°C° 0 mm 2 mps 753 mmHg 69%
08:00 +18°C° 0 mm 2 mps 753 mmHg 64%
09:00 +20°C° 0 mm 2 mps 753 mmHg 58%
10:00 +21°C° 0 mm 2 mps 754 mmHg 53%
11:00 +23°C° 0 mm 2 mps 753 mmHg 51%
12:00 +23°C° 0 mm 2 mps 753 mmHg 48%
13:00 +24°C° 0 mm 2 mps 753 mmHg 45%
14:00 +24°C° 0 mm 2 mps 753 mmHg 47%
15:00 +24°C° 0 mm 2 mps 753 mmHg 49%
16:00 +23°C° 0 mm 2 mps 752 mmHg 51%
17:00 +20°C° 0 mm 2 mps 752 mmHg 59%
18:00 +19°C° 0 mm 2 mps 752 mmHg 67%
19:00 +17°C° 0 mm 2 mps 752 mmHg 75%
20:00 +16°C° 0 mm 2 mps 752 mmHg 77%
21:00 +15°C° 0 mm 2 mps 752 mmHg 79%
22:00 +14°C° 0 mm 2 mps 752 mmHg 81%
23:00 +14°C° 0 mm 2 mps 752 mmHg 82%

Tomorrow, 13 August, Thursday

Time Temperature Precipitation Wind Pressure Humidity
00:00 +13°C° 0 mm 1 mps 752 mmHg 83%
01:00 +13°C° 0 mm 1 mps 752 mmHg 84%
02:00 +12°C° 0 mm 1 mps 752 mmHg 85%
03:00 +12°C° 0 mm 1 mps 752 mmHg 87%
04:00 +12°C° 0 mm 1 mps 751 mmHg 88%
05:00 +13°C° 0 mm 1 mps 752 mmHg 82%
06:00 +15°C° 0 mm 1 mps 752 mmHg 76%
07:00 +18°C° 0 mm 1 mps 752 mmHg 70%
08:00 +20°C° 0 mm 1 mps 752 mmHg 64%
09:00 +22°C° 0 mm 1 mps 751 mmHg 58%
10:00 +24°C° 0 mm 1 mps 751 mmHg 52%
11:00 +24°C° 0 mm 1 mps 751 mmHg 48%
12:00 +25°C° 0 mm 1 mps 751 mmHg 45%
13:00 +24°C° 0 mm 0 mps 751 mmHg 41%
14:00 +26°C° 0 mm 1 mps 750 mmHg 43%
15:00 +25°C° 0 mm 1 mps 750 mmHg 45%
16:00 +25°C° 0 mm 1 mps 750 mmHg 47%
17:00 +23°C° 0 mm 1 mps 750 mmHg 54%
18:00 +21°C° 0 mm 1 mps 749 mmHg 61%
19:00 +18°C° 0 mm 2 mps 749 mmHg 67%
20:00 +17°C° 0 mm 2 mps 749 mmHg 70%
21:00 +17°C° 0 mm 2 mps 750 mmHg 72%
22:00 +16°C° 0 mm 2 mps 750 mmHg 75%
23:00 +15°C° 0 mm 2 mps 750 mmHg 76%

Day after tomorrow, 14 August, Friday

Time Temperature Precipitation Wind Pressure Humidity
00:00 +15°C° 0 mm 1 mps 750 mmHg 78%
01:00 +14°C° 0 mm 1 mps 750 mmHg 79%
02:00 +14°C° 0 mm 1 mps 750 mmHg 80%
03:00 +14°C° 0 mm 1 mps 749 mmHg 81%
04:00 +14°C° 0 mm 1 mps 749 mmHg 82%
05:00 +15°C° 0 mm 1 mps 749 mmHg 77%
06:00 +18°C° 0 mm 1 mps 749 mmHg 73%
07:00 +19°C° 0 mm 1 mps 750 mmHg 69%
08:00 +21°C° 0 mm 1 mps 750 mmHg 63%
09:00 +23°C° 0 mm 1 mps 750 mmHg 58%
10:00 +24°C° 0 mm 1 mps 750 mmHg 52%
11:00 +25°C° 0 mm 1 mps 750 mmHg 49%
12:00 +26°C° 0 mm 1 mps 749 mmHg 46%
13:00 +27°C° 0 mm 1 mps 749 mmHg 43%
14:00 +27°C° 0 mm 1 mps 749 mmHg 44%
15:00 +26°C° 0 mm 1 mps 749 mmHg 45%
16:00 +26°C° 0 mm 1 mps 749 mmHg 46%
17:00 +24°C° 0 mm 1 mps 749 mmHg 52%
18:00 +23°C° 0 mm 1 mps 749 mmHg 58%
19:00 +21°C° 0 mm 1 mps 749 mmHg 64%
20:00 +19°C° 0 mm 2 mps 749 mmHg 66%
21:00 +19°C° 0 mm 2 mps 749 mmHg 68%
22:00 +18°C° 0 mm 2 mps 749 mmHg 70%
23:00 +17°C° 0 mm 2 mps 749 mmHg 72%

15 August, Saturday

Time Temperature Precipitation Wind Pressure Humidity
00:00 +17°C° 0 mm 2 mps 749 mmHg 74%
01:00 +16°C° 0 mm 2 mps 749 mmHg 76%
02:00 +16°C° 0 mm 2 mps 749 mmHg 77%
03:00 +16°C° 0 mm 2 mps 749 mmHg 78%
04:00 +15°C° 0 mm 1 mps 749 mmHg 80%
05:00 +17°C° 0 mm 2 mps 750 mmHg 77%
06:00 +18°C° 0 mm 2 mps 750 mmHg 73%
07:00 +19°C° 0 mm 2 mps 750 mmHg 70%
08:00 +20°C° 0 mm 2 mps 750 mmHg 66%
09:00 +23°C° 0 mm 2 mps 750 mmHg 61%
10:00 +24°C° 0 mm 2 mps 751 mmHg 56%
11:00 +25°C° 0 mm 2 mps 751 mmHg 53%
12:00 +25°C° 0 mm 2 mps 750 mmHg 50%
13:00 +26°C° 0 mm 2 mps 750 mmHg 47%
14:00 +26°C° 0 mm 2 mps 750 mmHg 48%
15:00 +26°C° 0 mm 2 mps 750 mmHg 49%
16:00 +26°C° 0 mm 2 mps 750 mmHg 50%
17:00 +24°C° 0 mm 2 mps 750 mmHg 55%
18:00 +21°C° 0 mm 2 mps 750 mmHg 60%
19:00 +20°C° 0 mm 2 mps 750 mmHg 66%
20:00 +20°C° 0 mm 1 mps 750 mmHg 67%
21:00 +19°C° 0 mm 1 mps 751 mmHg 69%
22:00 +18°C° 0 mm 1 mps 751 mmHg 71%
23:00 +18°C° 0 mm 1 mps 751 mmHg 72%

16 August, Sunday

Time Temperature Precipitation Wind Pressure Humidity
00:00 +16°C° 0 mm 1 mps 751 mmHg 74%
01:00 +16°C° 0 mm 1 mps 751 mmHg 75%
02:00 +15°C° 0 mm 1 mps 751 mmHg 77%
03:00 +15°C° 0 mm 1 mps 751 mmHg 79%
04:00 +15°C° 0 mm 1 mps 751 mmHg 81%
05:00 +16°C° 0 mm 1 mps 751 mmHg 76%
06:00 +19°C° 0 mm 1 mps 752 mmHg 70%
07:00 +21°C° 0 mm 1 mps 752 mmHg 65%
08:00 +22°C° 0 mm 1 mps 752 mmHg 60%
09:00 +24°C° 0 mm 1 mps 752 mmHg 54%
10:00 +26°C° 0 mm 2 mps 752 mmHg 49%
11:00 +26°C° 0 mm 2 mps 752 mmHg 47%
12:00 +27°C° 0 mm 2 mps 752 mmHg 45%
13:00 +27°C° 0 mm 2 mps 752 mmHg 43%
14:00 +27°C° 0 mm 2 mps 752 mmHg 45%
15:00 +27°C° 0 mm 2 mps 751 mmHg 48%
16:00 +26°C° 0 mm 2 mps 751 mmHg 51%
17:00 +24°C° 0 mm 2 mps 751 mmHg 57%
18:00 +23°C° 0 mm 2 mps 751 mmHg 63%
19:00 +21°C° 0 mm 1 mps 751 mmHg 70%
20:00 +20°C° 0 mm 1 mps 751 mmHg 72%
21:00 +20°C° 0 mm 1 mps 751 mmHg 75%
22:00 +19°C° 0 mm 1 mps 751 mmHg 77%
23:00 +17°C° 0 mm 2 mps 751 mmHg 79%

17 August, Monday

Time Temperature Precipitation Wind Pressure Humidity
00:00 +17°C° 0 mm 2 mps 751 mmHg 81%
01:00 +17°C° 0 mm 2 mps 751 mmHg 83%
02:00 +16°C° 0 mm 2 mps 751 mmHg 85%
03:00 +16°C° 0 mm 2 mps 751 mmHg 87%
04:00 +16°C° 0 mm 2 mps 751 mmHg 88%
05:00 +17°C° 0 mm 2 mps 751 mmHg 84%
06:00 +19°C° 0 mm 2 mps 750 mmHg 79%
07:00 +20°C° 0 mm 2 mps 750 mmHg 74%
08:00 +23°C° 0 mm 2 mps 750 mmHg 68%
09:00 +24°C° 0 mm 3 mps 750 mmHg 62%
10:00 +26°C° 0 mm 3 mps 750 mmHg 56%
11:00 +26°C° 0 mm 4 mps 750 mmHg 54%
12:00 +27°C° 0 mm 4 mps 750 mmHg 52%
13:00 +28°C° 0 mm 4 mps 749 mmHg 50%
14:00 +27°C° 0.1 mm 4 mps 749 mmHg 51%
15:00 +27°C° 0.1 mm 4 mps 749 mmHg 52%
16:00 +27°C° 0.1 mm 4 mps 748 mmHg 53%
17:00 +25°C° 0 mm 3 mps 748 mmHg 59%
18:00 +22°C° 0 mm 3 mps 748 mmHg 65%
19:00 +21°C° 0 mm 2 mps 748 mmHg 70%
20:00 +20°C° 0 mm 2 mps 748 mmHg 71%
21:00 +19°C° 0 mm 2 mps 748 mmHg 71%
22:00 +18°C° 0 mm 2 mps 748 mmHg 72%
23:00 +18°C° 0 mm 2 mps 747 mmHg 73%
Show more